Location: Unspecified
(56.5167°N, 0.0000°E)
Time: 03:28:00
(UTC+02:00)

Resurs 1-4 Rocket - Visible Passes

Search period start: 24 October 2020 00:00
Search period end: 02 November 2020 23:00
Orbit: 800 x 813 km, 98.6° (Epoch: 23 October)

Date Brightness Start Highest point End Pass type
(mag) Time Alt. Az. Time Alt. Az. Time Alt. Az.
24 Oct 4.6 03:07:37 10° NNE 03:08:54 17° NE 03:08:54 17° NE visible
24 Oct 3.7 04:47:29 10° N 04:49:58 26° N 04:49:58 26° N visible
24 Oct 4.0 06:28:38 10° N 06:31:02 14° NW 06:31:02 14° NW visible
25 Oct 4.9 02:43:16 10° NE 02:43:53 13° NE 02:43:53 13° NE visible
25 Oct 3.9 03:22:45 10° NNE 03:24:57 25° N 03:24:57 25° N visible
25 Oct 3.9 05:03:30 10° N 05:06:01 18° NNW 05:06:01 18° NNW visible
26 Oct 4.2 02:58:05 10° NNE 02:59:56 22° NNE 02:59:56 22° NNE visible
26 Oct 3.8 04:38:32 10° N 04:41:00 21° NNW 04:41:00 21° NNW visible
27 Oct 4.5 02:33:29 10° NNE 02:34:55 19° NNE 02:34:55 19° NNE visible
27 Oct 3.8 04:13:40 10° N 04:16:00 23° NNW 04:16:00 23° NNW visible
27 Oct 4.2 05:55:52 10° NNW 05:56:47 10° NW 05:57:03 10° NW visible
28 Oct 4.8 02:08:59 10° NNE 02:09:54 15° NNE 02:09:54 15° NNE visible
28 Oct 3.9 03:48:52 10° N 03:50:58 23° N 03:50:58 23° N visible
28 Oct 4.1 05:30:04 10° NNW 05:32:03 14° NNW 05:32:03 14° NNW visible
29 Oct 5.0 01:44:37 10° NNE 01:44:53 11° NE 01:44:53 11° NE visible
29 Oct 4.1 03:24:08 10° NNE 03:25:57 22° N 03:25:57 22° N visible
29 Oct 4.0 05:04:54 10° N 05:07:01 16° NNW 05:07:01 16° NNW visible
30 Oct 4.4 02:59:28 10° NNE 03:00:57 19° NNE 03:00:57 19° NNE visible
30 Oct 4.0 04:39:56 10° N 04:42:00 19° NNW 04:42:00 19° NNW visible
31 Oct 4.7 02:34:52 10° NNE 02:35:56 16° NNE 02:35:56 16° NNE visible
31 Oct 4.0 04:15:04 10° N 04:17:01 20° N 04:17:01 20° N visible
31 Oct 4.3 05:57:24 10° NNW 05:58:04 10° NNW 05:58:04 10° NNW visible
01 Nov 4.9 02:10:22 10° NNE 02:10:55 13° NNE 02:10:55 13° NNE visible
01 Nov 4.1 03:50:16 10° N 03:51:59 20° N 03:51:59 20° N visible
01 Nov 4.2 05:31:29 10° NNW 05:33:04 13° NNW 05:33:04 13° NNW visible
02 Nov 4.3 03:25:32 10° NNE 03:26:59 19° N 03:26:59 19° N visible
02 Nov 4.1 05:06:19 10° N 05:08:03 15° NNW 05:08:03 15° NNW visible
